Main page
METAR-TAF:

METAR-TAF

Airports :

Hutchinson County Airport

Borger, Texas, United States

latitude: 35-41-42N, longitude: 101-23-42W, elevation: 3054 ft

Current weather observation

The report was made 28 minutes ago, at 19:51 UTC
Wind 8 mph from the Northeast, varying between North and East
Temperature 70°F
Humidity 26%
Pressure 30.38 in. Hg
Visibility: 10 miles
Clear sky

METAR: KBGD 201951Z AUTO 05007KT 010V080 10SM CLR 21/01 A3038 RMK AO2 SLP265 T02110006

Time: 15:19 (20:19 UTC)


TAF: missing

Weather observations and forecasts of more than 4000 airports (METAR and TAF reports).

The available stations are represented by yellow and red dots on the map.

Hover mouse over dot to see the name of the station.

Then click to see weather observations and forecasts.

To change the map : click on the green buttons with a black cross to zoom in, on the green button with a dash to zoom out, or on the green arrows for adjacent maps.


METAR-TAF: